Orbital Elements at Epoch 2459000.5 (2020-May-31.0) TDB
Reference: JPL 12 (heliocentric ecliptic J2000)
Element | Value | Uncertainty (1-sigma) | Units |
e | .1588816475521816 | 5.2632e-08 | |
a | 3.201048663640534 | 2.6577e-08 | au |
q | 2.692460778066617 | 1.6917e-07 | au |
i | 16.68018181131198 | 6.2741e-06 | deg |
node | 346.5528231772273 | 1.8423e-05 | deg |
peri | 62.84908636352923 | 2.7123e-05 | deg |
M | 185.2756147244207 | 2.0679e-05 | deg |
tp | 2460015.784747936998 (2023-Mar-12.28474794) | 0.00012702 | TDB |
period | 2091.880355915062 5.73 | 2.6052e-05 7.133e-08 | d yr |
n | .1720939722876853 | 2.1433e-09 | deg/d |
Q | 3.709636549214451 | 3.08e-08 | au |
|
| | Orbit Determination Parameters
Additional Information
|